GW5895 Weather Reports


time (UTC)temp
F
wind
direction
speed
knots
gust
knots
rain 1hr
in
rain 24hr
in
rain mn
in
humidity
%
barometer
mb
20260509064706 55 205 0.0 0.0 0.00 0.08 0.08 97 1007.9
20260509064204 55 223 0.0 0.0 0.00 0.08 0.08 97 1008.1
20260509063701 55 222 0.0 0.0 0.00 0.08 0.08 97 1008.2
20260509063157 55 222 0.0 0.0 0.07 0.08 0.08 97 1008.3
20260509062655 55 206 0.0 0.0 0.07 0.08 0.08 97 1008.4
20260509062152 55 222 0.0 0.0 0.05 0.07 0.07 97 1008.2
20260509061648 55 197 0.0 0.0 0.05 0.07 0.07 97 1008.6
20260509061146 55 204 0.0 0.0 0.07 0.06 0.06 97 1008.6
20260509060644 55 202 0.0 0.0 0.19 0.06 0.06 97 1008.7
20260509060139 55 207 0.0 0.0 0.24 0.05 0.05 97 1008.7
20260509055635 55 209 0.0 0.0 0.17 0.03 0.03 96 1008.7
20260509055131 55 214 0.0 0.0 0.05 0.01 0.01 96 1008.8
20260509054628 55 229 0.9 0.9 0.00 0.00 0.00 96 1009.1
20260509054126 55 189 0.0 0.0 0.00 0.00 0.00 96 1009.0
20260509053624 55 219 0.0 0.0 0.00 0.00 0.00 96 1008.9
20260509053121 55 208 0.0 0.0 0.00 0.00 0.00 96 1008.9
20260509052619 55 201 0.0 0.0 0.00 0.00 0.00 96 1009.2
20260509052116 55 181 0.0 0.0 0.00 0.00 0.00 96 1009.1
20260509051614 55 221 0.0 0.0 0.00 0.00 0.00 96 1009.0
20260509051111 55 221 0.0 0.9 0.00 0.00 0.00 96 1009.1
20260509050608 55 219 0.0 0.0 0.00 0.00 0.00 96 1008.9
20260509050104 55 204 0.0 0.0 0.00 0.00 0.00 96 1008.9
20260509045602 55 204 0.0 0.0 0.00 0.00 0.00 96 1008.8
20260509045058 55 205 0.0 0.0 0.00 0.00 0.00 96 1009.0
20260509044556 55 192 0.0 0.0 0.00 0.00 0.00 96 1008.9
20260509044053 55 205 0.0 0.0 0.00 0.00 0.00 96 1009.0
20260509043549 55 164 0.0 0.9 0.00 0.00 0.00 96 1009.1
20260509043045 55 217 0.0 0.0 0.00 0.00 0.00 96 1009.1
20260509042541 55 217 0.0 0.0 0.00 0.00 0.00 96 1009.1
20260509042038 55 217 0.0 0.0 0.00 0.00 0.00 96 1009.0
20260509041534 55 217 0.0 0.9 0.00 0.00 0.00 96 1008.7
20260509041032 55 227 0.0 0.0 0.00 0.00 0.00 96 1008.6
20260509040530 55 226 0.0 0.0 0.00 0.00 0.00 96 1009.0
20260509040027 55 227 0.0 0.0 0.00 0.34 0.34 96 1008.8
20260509035524 55 231 0.0 0.9 0.00 0.34 0.34 96 1009.0
20260509035020 55 191 0.0 0.0 0.00 0.34 0.34 96 1008.9
20260509034519 55 225 0.0 0.0 0.00 0.34 0.34 96 1008.8
20260509034015 55 224 0.0 0.0 0.00 0.34 0.34 96 1008.7
20260509033512 55 224 0.0 0.0 0.07 0.34 0.34 96 1008.8
20260509033009 55 224 0.0 0.0 0.07 0.34 0.34 96 1008.8
20260509032506 55 223 0.0 0.0 0.07 0.34 0.34 96 1008.9
20260509032004 55 223 0.0 0.0 0.00 0.33 0.33 96 1009.0
20260509031501 55 196 0.0 0.0 0.00 0.33 0.33 96 1008.8
20260509030958 55 201 0.0 0.0 0.05 0.33 0.33 96 1009.0
20260509030456 55 209 0.9 0.9 0.05 0.33 0.33 96 1009.2
20260509025953 55 206 0.0 0.0 0.00 0.32 0.32 95 1009.1
20260509025449 55 207 0.9 1.7 0.00 0.32 0.32 95 1009.1
20260509024944 55 201 0.0 0.0 0.00 0.32 0.32 95 1009.1
20260509024440 55 194 0.0 0.0 0.00 0.32 0.32 95 1009.2
20260509023937 55 215 0.0 0.0 0.00 0.32 0.32 95 1009.3
20260509023435 55 212 0.9 0.9 0.07 0.32 0.32 95 1009.2
20260509022931 55 179 0.0 0.0 0.07 0.32 0.32 95 1009.3
20260509022428 55 208 0.0 0.0 0.00 0.31 0.31 95 1009.6
20260509021926 55 176 0.0 0.0 0.00 0.31 0.31 95 1009.3
20260509021422 55 173 0.0 0.0 0.00 0.31 0.31 95 1009.3
20260509020920 55 170 0.0 0.0 0.00 0.31 0.31 95 1009.1
20260509020418 55 207 0.0 0.0 0.00 0.31 0.31 95 1009.3
20260509015915 55 201 0.0 0.9 0.00 0.31 0.31 96 1009.0
20260509015414 55 203 0.0 0.0 0.00 0.31 0.31 96 1009.0
20260509014910 55 220 0.9 0.9 0.05 0.31 0.31 96 1009.2
20260509014407 56 202 0.0 0.0 0.05 0.31 0.31 96 1009.1
20260509013903 56 241 0.0 0.9 0.00 0.30 0.30 96 1009.0
20260509013400 56 192 0.0 0.0 0.00 0.30 0.30 96 1009.1
20260509012855 55 194 0.0 0.0 0.00 0.30 0.30 96 1009.1
20260509012352 55 168 0.0 0.0 0.07 0.30 0.30 96 1009.0
20260509011850 55 219 0.0 0.0 0.07 0.30 0.30 96 1008.9
20260509011347 55 192 0.0 0.0 0.07 0.29 0.29 96 1008.9
20260509010845 55 211 0.0 0.9 0.07 0.29 0.29 96 1009.1
20260509010342 55 176 0.0 0.0 0.00 0.28 0.28 96 1009.1
20260509005839 55 195 0.0 0.0 0.00 0.28 0.28 96 1009.1
20260509005337 55 211 0.0 0.0 0.00 0.28 0.28 96 1009.2
20260509004837 55 220 0.0 0.0 0.00 0.28 0.28 96 1008.8
20260509004334 55 219 0.0 0.0 0.00 0.28 0.28 96 1008.8
20260509003831 55 218 0.0 0.0 0.00 0.28 0.28 96 1009.1
20260509003329 55 198 0.0 0.0 0.00 0.28 0.28 96 1009.2
20260509002826 55 207 0.0 0.0 0.00 0.28 0.28 96 1009.0
20260509002323 55 199 0.0 0.0 0.00 0.28 0.28 96 1009.1
20260509001821 55 139 0.0 0.9 0.05 0.28 0.28 96 1009.1
20260509001317 55 215 0.0 0.0 0.05 0.28 0.28 96 1009.3
20260509000815 55 173 0.0 0.0 0.07 0.27 0.27 96 1009.3
20260509000312 55 199 0.0 0.0 0.12 0.27 0.27 96 1009.3
20260508235808 55 181 0.0 0.0 0.12 0.26 0.26 96 1009.4
20260508235306 55 246 0.0 0.9 0.07 0.25 0.25 96 1009.6
20260508234803 55 212 0.0 0.0 0.00 0.24 0.24 96 1009.5
20260508234259 55 189 0.0 0.0 0.00 0.24 0.24 96 1009.3
20260508233758 55 206 0.0 0.0 0.00 0.24 0.24 96 1009.2
20260508233256 55 221 0.0 0.0 0.00 0.24 0.24 95 1009.2
20260508232753 55 208 0.0 0.0 0.05 0.24 0.24 95 1009.2
20260508232249 55 205 0.0 0.0 0.05 0.24 0.24 95 1009.3
20260508231748 55 179 0.0 0.0 0.07 0.23 0.23 95 1009.3
20260508231244 55 211 0.0 0.0 0.12 0.23 0.23 95 1009.5
20260508230741 55 212 0.0 0.9 0.12 0.22 0.22 95 1009.6
20260508230237 55 223 0.0 0.9 0.12 0.21 0.21 95 1009.6
20260508225735 55 215 0.0 0.0 0.05 0.20 0.20 95 1009.9
20260508225231 55 209 0.0 0.0 0.07 0.19 0.19 95 1009.3
20260508224729 55 208 0.0 0.0 0.19 0.19 0.19 95 1009.3
20260508224226 55 200 0.0 0.0 0.12 0.18 0.18 95 1009.5
20260508223724 56 214 0.0 0.0 0.19 0.17 0.17 95 1009.6
20260508223221 56 196 0.0 0.0 0.24 0.16 0.16 94 1009.5
20260508222718 56 196 0.0 0.0 0.12 0.14 0.14 94 1009.9
20260508222216 56 195 0.0 0.0 0.00 0.12 0.12 94 1009.8
20260508221712 56 195 0.0 0.0 0.07 0.12 0.12 94 1010.0
20260508221208 56 195 0.0 0.0 0.19 0.12 0.12 93 1009.9
20260508220704 56 195 0.0 0.0 0.24 0.11 0.11 93 1009.9
20260508220201 56 195 0.0 0.0 0.24 0.09 0.09 93 1010.0
20260508215657 56 195 0.0 0.0 0.12 0.07 0.07 92 1010.2
20260508215154 56 195 0.0 0.0 0.14 0.06 0.06 92 1010.1
20260508214651 56 195 0.0 0.0 0.12 0.05 0.05 91 1009.9
20260508214148 56 195 0.0 0.0 0.05 0.04 0.04 91 1009.9
20260508213645 56 195 0.0 0.0 0.00 0.03 0.03 90 1009.8
20260508213141 56 195 0.0 0.0 0.07 0.03 0.03 89 1009.8
20260508212638 57 207 0.0 0.9 0.07 0.03 0.03 89 1009.6
20260508212134 57 206 0.9 0.9 0.05 0.02 0.02 88 1009.6
20260508211629 57 213 0.0 0.0 0.12 0.02 0.02 86 1009.8
20260508211126 58 221 0.0 0.9 0.07 0.01 0.01 84 1009.8
20260508210623 59 80 0.9 1.7 0.00 0.00 0.00 79 1009.5
20260508210120 61 257 0.9 1.7 0.00 0.00 0.00 74 1009.8
20260508205617 61 199 0.0 0.0 0.00 0.00 0.00 73 1009.3
20260508205114 62 199 0.0 0.0 0.00 0.00 0.00 71 1009.2
20260508204610 62 199 0.0 0.0 0.00 0.00 0.00 68 1009.1
20260508204106 62 199 0.0 0.0 0.00 0.00 0.00 70 1009.0
20260508203602 63 199 0.0 0.0 0.00 0.00 0.00 68 1009.2
20260508203058 64 199 0.0 0.0 0.00 0.00 0.00 67 1009.2
20260508202555 64 199 0.0 0.0 0.00 0.00 0.00 61 1009.2
20260508202052 64 199 0.0 0.0 0.00 0.00 0.00 58 1009.3
20260508201549 64 186 0.0 0.0 0.00 0.00 0.00 57 1009.5
20260508201045 64 181 0.0 0.0 0.00 0.00 0.00 56 1009.5
20260508200543 64 181 0.0 0.0 0.00 0.00 0.00 56 1009.6
20260508200038 64 180 0.0 0.0 0.00 0.00 0.00 57 1009.4
20260508195535 64 209 0.0 0.0 0.00 0.00 0.00 58 1009.8
20260508195031 64 195 0.0 0.0 0.00 0.00 0.00 57 1009.9
20260508194528 65 186 0.0 0.0 0.00 0.00 0.00 59 1009.8
20260508194026 65 168 0.0 0.0 0.00 0.00 0.00 57 1009.6
20260508193522 64 224 0.0 0.0 0.00 0.00 0.00 59 1009.9
20260508193019 64 220 0.0 0.0 0.00 0.00 0.00 56 1010.1
20260508192515 64 222 0.9 0.9 0.00 0.00 0.00 55 1010.2
20260508192013 64 220 0.0 0.9 0.00 0.00 0.00 56 1010.2
20260508191509 64 196 0.0 0.0 0.00 0.00 0.00 56 1010.3
20260508191006 64 223 0.0 0.0 0.00 0.00 0.00 56 1010.3
20260508190503 64 207 0.0 0.0 0.00 0.00 0.00 56 1010.3
20260508185959 64 186 0.0 0.0 0.00 0.00 0.00 56 1010.4
20260508185457 63 217 0.0 0.9 0.00 0.00 0.00 57 1010.6
20260508184954 63 201 0.0 0.0 0.00 0.00 0.00 56 1010.8
20260508184452 63 218 0.0 0.9 0.00 0.00 0.00 55 1010.9
20260508183948 63 178 0.0 0.0 0.00 0.00 0.00 55 1011.0
20260508183445 63 198 0.0 0.0 0.00 0.00 0.00 55 1010.7
20260508182940 63 167 0.9 0.9 0.00 0.00 0.00 53 1010.9
20260508182438 63 199 0.0 0.9 0.00 0.00 0.00 54 1010.8
20260508181937 63 144 0.0 0.0 0.00 0.00 0.00 53 1010.8
20260508181434 63 215 0.9 1.7 0.00 0.00 0.00 53 1011.0
20260508180932 63 271 0.9 2.6 0.00 0.00 0.00 53 1011.0
20260508180429 63 215 0.0 0.0 0.00 0.00 0.00 54 1011.2
20260508175924 63 191 0.0 0.9 0.00 0.00 0.00 52 1011.0
20260508175421 63 199 0.0 0.0 0.00 0.00 0.00 52 1011.1
20260508174920 64 204 0.0 0.9 0.00 0.00 0.00 53 1011.1
20260508174417 64 217 0.0 0.9 0.00 0.00 0.00 53 1011.2
20260508173913 64 212 0.0 0.9 0.00 0.00 0.00 51 1011.3
20260508173410 64 214 0.9 0.9 0.00 0.00 0.00 50 1011.3
20260508172906 65 184 0.0 0.9 0.00 0.00 0.00 49 1011.2
20260508172404 67 249 1.7 1.7 0.00 0.00 0.00 48 1011.1
20260508171859 67 142 0.0 0.0 0.00 0.00 0.00 50 1011.1
20260508171356 67 193 0.0 0.0 0.00 0.00 0.00 50 1011.2
20260508170853 67 217 0.9 1.7 0.00 0.00 0.00 48 1011.3
20260508170351 68 137 0.9 0.9 0.00 0.00 0.00 47 1011.5
20260508165847 67 224 0.9 0.9 0.00 0.00 0.00 46 1011.4
20260508165345 68 213 0.9 1.7 0.00 0.00 0.00 48 1011.7
20260508164840 68 243 1.7 3.5 0.00 0.00 0.00 47 1011.8
20260508164338 67 188 0.0 0.9 0.00 0.00 0.00 50 1011.8
20260508163835 66 180 1.7 1.7 0.00 0.00 0.00 48 1012.0
20260508163333 67 228 1.7 1.7 0.00 0.00 0.00 47 1012.2
20260508162828 68 93 1.7 2.6 0.00 0.00 0.00 51 1012.1
20260508162325 68 182 0.0 0.0 0.00 0.00 0.00 51 1012.1
20260508161823 68 184 0.9 0.9 0.00 0.00 0.00 48 1012.2
20260508161320 66 208 0.0 0.9 0.00 0.00 0.00 50 1012.3
20260508160817 64 213 0.0 0.0 0.00 0.00 0.00 55 1012.3
20260508160316 64 219 0.0 0.0 0.00 0.00 0.00 53 1012.4
20260508155812 63 207 0.0 0.9 0.00 0.00 0.00 53 1012.4
20260508155309 64 190 0.0 0.9 0.00 0.00 0.00 51 1012.4
20260508154806 65 265 1.7 1.7 0.00 0.00 0.00 50 1012.3
20260508154304 65 167 0.0 0.9 0.00 0.00 0.00 49 1012.5
20260508153759 64 237 0.9 1.7 0.00 0.00 0.00 51 1012.4
20260508153257 63 198 0.0 0.9 0.00 0.00 0.00 52 1012.5
20260508152753 64 261 0.9 1.7 0.00 0.00 0.00 50 1012.6
20260508152249 65 224 0.9 1.7 0.00 0.00 0.00 51 1012.6
20260508151746 64 203 0.0 0.0 0.00 0.00 0.00 52 1012.5
20260508151243 64 202 0.0 0.0 0.00 0.00 0.00 50 1012.5
20260508150739 64 196 0.0 0.0 0.00 0.00 0.00 52 1012.3
20260508150236 65 193 0.0 0.0 0.00 0.00 0.00 51 1012.8
20260508145732 65 186 0.0 0.0 0.00 0.00 0.00 51 1012.5
20260508145228 64 189 0.0 0.9 0.00 0.00 0.00 51 1012.6
20260508144725 63 172 0.0 0.0 0.00 0.00 0.00 52 1012.4
20260508144224 63 178 0.0 0.0 0.00 0.00 0.00 53 1012.8
20260508143721 62 135 0.0 0.9 0.00 0.00 0.00 53 1012.7
20260508143218 62 188 0.0 0.9 0.00 0.00 0.00 56 1012.8
20260508142714 61 206 0.0 0.9 0.00 0.00 0.00 56 1013.2
20260508142211 61 203 0.0 0.0 0.00 0.00 0.00 56 1012.9
20260508141707 60 208 0.0 0.9 0.00 0.00 0.00 55 1013.0
20260508141205 60 206 0.0 0.0 0.00 0.00 0.00 55 1013.0
20260508140702 59 182 0.0 0.9 0.00 0.00 0.00 55 1013.0
20260508140159 59 156 0.0 0.0 0.00 0.00 0.00 56 1013.2
20260508135655 60 188 0.0 0.0 0.00 0.00 0.00 55 1013.3
20260508135150 59 225 0.0 0.9 0.00 0.00 0.00 56 1013.2
20260508134647 58 209 0.0 0.9 0.00 0.00 0.00 55 1013.2
20260508134144 58 235 0.9 1.7 0.00 0.00 0.00 56 1013.3
20260508133641 58 215 0.9 0.9 0.00 0.00 0.00 56 1013.4
20260508133138 57 198 0.0 0.9 0.00 0.00 0.00 56 1013.4
20260508132636 57 103 0.0 0.0 0.00 0.00 0.00 57 1013.6
20260508132133 57 174 0.0 0.0 0.00 0.00 0.00 58 1013.2
20260508131628 56 200 0.0 0.9 0.00 0.00 0.00 58 1013.3
20260508131125 56 199 0.0 0.0 0.00 0.00 0.00 59 1013.4
20260508130622 56 185 0.0 0.0 0.00 0.00 0.00 60 1013.5
20260508130119 55 197 0.0 0.0 0.00 0.00 0.00 59 1013.6
20260508125619 55 202 0.0 0.9 0.00 0.00 0.00 59 1013.6
20260508125117 55 174 0.0 0.0 0.00 0.00 0.00 61 1013.4
20260508124615 54 175 0.0 0.0 0.00 0.00 0.00 62 1013.5
20260508124112 55 178 0.0 0.0 0.00 0.00 0.00 61 1013.5
20260508123610 54 178 0.0 0.0 0.00 0.00 0.00 59 1013.6
20260508123107 53 172 0.0 0.0 0.00 0.00 0.00 62 1013.3
20260508122603 52 207 0.0 0.0 0.00 0.00 0.00 63 1013.4
20260508122100 52 211 0.0 0.0 0.00 0.00 0.00 66 1013.6
20260508121559 51 211 0.0 0.0 0.00 0.00 0.00 64 1013.5
20260508121056 51 212 0.0 0.0 0.00 0.00 0.00 65 1013.2
20260508120553 50 182 0.0 0.0 0.00 0.00 0.00 67 1013.4
20260508120052 49 178 0.0 0.0 0.00 0.00 0.00 68 1013.3
20260508115549 49 170 0.0 0.0 0.00 0.00 0.00 68 1013.3
20260508115045 49 170 0.0 0.0 0.00 0.00 0.00 69 1013.5
20260508114543 49 170 0.0 0.0 0.00 0.00 0.00 69 1013.5
20260508114039 49 170 0.0 0.0 0.00 0.00 0.00 68 1013.4
20260508113536 49 170 0.0 0.0 0.00 0.00 0.00 69 1013.3
20260508113034 50 170 0.0 0.0 0.00 0.00 0.00 68 1013.1
20260508112530 50 170 0.0 0.0 0.00 0.00 0.00 65 1013.4
20260508112027 50 170 0.0 0.0 0.00 0.00 0.00 66 1013.3
20260508111524 50 170 0.0 0.0 0.00 0.00 0.00 67 1013.3
20260508111021 50 170 0.0 0.0 0.00 0.00 0.00 66 1013.2
20260508110519 50 170 0.0 0.0 0.00 0.00 0.00 64 1013.2
20260508110015 50 169 0.0 0.0 0.00 0.00 0.00 66 1013.0
20260508105510 51 168 0.0 0.0 0.00 0.00 0.00 65 1013.1
20260508105008 51 166 0.0 0.0 0.00 0.00 0.00 62 1013.1
20260508104505 51 207 0.0 0.0 0.00 0.00 0.00 61 1012.8
20260508104001 51 186 0.0 0.0 0.00 0.00 0.00 60 1012.8
20260508103458 51 208 0.0 0.0 0.00 0.00 0.00 61 1012.7
20260508102955 51 175 0.0 0.0 0.00 0.00 0.00 61 1012.9
20260508102454 51 214 0.0 0.0 0.00 0.00 0.00 60 1012.6
20260508101950 51 194 0.0 0.0 0.00 0.00 0.00 61 1012.6
20260508101448 51 196 0.0 0.0 0.00 0.00 0.00 61 1012.7
20260508100945 51 177 0.0 0.0 0.00 0.00 0.00 60 1012.5
20260508100444 51 182 0.0 0.0 0.00 0.00 0.00 61 1012.6
20260508095939 51 217 0.0 0.0 0.00 0.00 0.00 61 1012.7
20260508095437 51 214 0.0 0.0 0.00 0.00 0.00 60 1012.7
20260508094934 51 190 0.0 0.0 0.00 0.00 0.00 59 1012.5
20260508094430 52 190 0.0 0.0 0.00 0.00 0.00 59 1012.7
20260508093927 52 209 0.0 0.9 0.00 0.00 0.00 58 1012.8
20260508093425 52 177 0.0 0.0 0.00 0.00 0.00 58 1012.7
20260508092922 52 176 0.0 0.0 0.00 0.00 0.00 58 1012.8
20260508092420 52 162 0.0 0.0 0.00 0.00 0.00 58 1012.6
20260508091918 52 196 0.0 0.0 0.00 0.00 0.00 59 1012.6
20260508091415 52 192 0.0 0.0 0.00 0.00 0.00 58 1012.8
20260508090912 52 188 0.0 0.0 0.00 0.00 0.00 59 1012.8
20260508090411 53 179 0.0 0.0 0.00 0.00 0.00 58 1013.0
20260508085911 53 195 0.0 0.0 0.00 0.00 0.00 58 1012.7
20260508085409 53 204 0.0 0.9 0.00 0.00 0.00 57 1012.7
20260508084905 53 213 0.0 0.0 0.00 0.00 0.00 57 1012.8
20260508084402 54 203 0.0 0.0 0.00 0.00 0.00 57 1012.9
20260508083900 54 177 0.0 0.0 0.00 0.00 0.00 56 1013.2
20260508083357 53 196 0.0 0.0 0.00 0.00 0.00 57 1012.9
20260508082856 53 197 0.0 0.0 0.00 0.00 0.00 57 1013.2
20260508082354 53 211 0.0 0.0 0.00 0.00 0.00 58 1013.3
20260508081852 53 207 0.0 0.0 0.00 0.00 0.00 56 1013.3
20260508081348 53 195 0.0 0.0 0.00 0.00 0.00 57 1013.4
20260508080845 54 195 0.0 0.9 0.00 0.00 0.00 58 1013.5
20260508080343 54 190 0.0 0.0 0.00 0.00 0.00 56 1013.5
20260508075839 54 182 0.0 0.0 0.00 0.00 0.00 56 1013.5
20260508075336 54 214 0.0 0.0 0.00 0.00 0.00 55 1013.6
20260508074834 54 169 0.0 0.9 0.00 0.00 0.00 54 1013.5
20260508074331 54 177 0.0 0.9 0.00 0.00 0.00 54 1013.5
20260508073828 53 187 0.0 0.0 0.00 0.00 0.00 57 1013.5
20260508073326 53 203 0.0 0.0 0.00 0.00 0.00 56 1013.3
20260508072822 53 207 0.9 0.9 0.00 0.00 0.00 55 1013.2
20260508072319 53 197 0.0 0.0 0.00 0.00 0.00 57 1013.3
20260508071816 53 177 0.0 0.0 0.00 0.00 0.00 56 1013.2
20260508071315 53 211 0.0 0.0 0.00 0.00 0.00 57 1013.4
20260508070811 53 210 0.0 0.0 0.00 0.00 0.00 56 1013.3
20260508070310 53 147 0.0 0.9 0.00 0.00 0.00 55 1013.2
20260508065807 53 214 0.0 0.0 0.00 0.00 0.00 57 1013.0
20260508065307 53 189 0.0 0.0 0.00 0.00 0.00 57 1013.2